This demonstration page uses our WeatherBlox Daily Observations layout. Learn more.

Left ArrowRight Arrow

38.80484, -77.04692

Hourly Observations for February 5, 2016

Temp ( °F °C ) Dew Point ( °F °C ) Humidity (%) Winds ( mph kmh ) Pressure ( in mb ) Visibility ( mi km ) Precip ( " mm )
12:52 am 00:52 Cloudy with Light Rain 41 5 29 -1.7 62 62 NNW 16 26 30.10 1019 10 16 0.00 0.03
1:52 am 01:52 Cloudy with Light Rain/Snow 37 2.8 31 -0.6 79 79 NNW 10 17 30.11 1020 5 8 0.02 0.51
2:14 am 02:14 Windy with Snow Likely 37 3 30 -1 75 75 NNW 20 31 30.09 1019 5 8 0.00 0.00
2:27 am 02:27 Cloudy with Light Snow 37 2.8 32 0 82 82 NNW 17 28 30.12 1020 5 8 0.01 0.25
2:52 am 02:52 Cloudy with Light Rain/Snow 37 2.8 32 0 82 82 NNW 15 24 30.11 1020 5 8 0.01 0.25
3:52 am 03:52 Cloudy with Light Rain/Snow 37 2.8 32 0 82 82 NNW 9 15 30.12 1020 5 8 0.01 0.25
4:52 am 04:52 Cloudy with Light Snow 38 3.3 32 0 79 79 NNW 10 17 30.10 1019 9 14 0.00 0.03
5:52 am 05:52 Cloudy with Light Snow 39 3.9 29 -1.7 67 67 NNW 18 30 30.11 1020 9 14 0.00 0.03
6:21 am 06:21 Windy with Snow Likely 38 3.3 29 -1.7 70 70 NW 23 37 30.12 1020 9 14 0.00 0.03
6:52 am 06:52 Cloudy with Light Snow 37 2.8 29 -1.7 73 73 NW 18 30 30.16 1021 9 14 0.00 0.03
7:52 am 07:52 Windy with Snow Likely 37 2.8 26 -3.3 65 65 NNW 21 33 30.19 1022 8 13 0.00 0.03
8:17 am 08:17 Cloudy 38 3.3 26 -3.3 62 62 NW 17 28 30.21 1023 9 14 0.00 0.03
8:52 am 08:52 Cloudy 38 3.3 25 -3.9 60 60 NW 24 39 30.22 1023 10 16 0.00 0.03
9:52 am 09:52 Windy with Snow Likely 37 2.8 27 -2.8 67 67 NW 22 35 30.24 1024 10 16 0.00 0.03
10:09 am 10:09 Cloudy 38 3.3 27 -2.8 65 65 NW 20 31 30.24 1024 9 14 0.00 0.03
10:52 am 10:52 Cloudy 39 3.9 26 -3.3 60 60 NW 23 37 30.26 1025 10 16 0.00 0.03
11:52 am 11:52 Partly Cloudy 41 5 25 -3.9 53 53 NNW 22 35 30.28 1025 10 16 0.00 0.00
12:52 pm 12:52 Partly Cloudy 42 5.6 23 -5 47 47 WNW 18 30 30.28 1026 10 16 0.00 0.00
1:52 pm 13:52 Partly Cloudy 43 6.1 20 -6.7 40 40 NW 15 24 30.28 1026 10 16 0.00 0.00
2:52 pm 14:52 Mostly Sunny 43 6.1 20 -6.7 40 40 W 20 31 30.29 1026 10 16 0.00 0.00
3:52 pm 15:52 Mostly Sunny 43 6.1 19 -7.2 38 38 NW 13 20 30.31 1026 10 16 0.00 0.00
4:52 pm 16:52 Mostly Sunny 41 5 19 -7.2 41 41 NNW 18 30 30.33 1027 10 16 0.00 0.00
5:52 pm 17:52 Mostly Clear 40 4.4 18 -7.8 41 41 NW 17 28 30.36 1028 10 16 0.00 0.00
6:52 pm 18:52 Clear 38 3.3 18 -7.8 44 44 NNW 10 17 30.37 1029 10 16 0.00 0.00
7:52 pm 19:52 Clear 37 2.8 18 -7.8 46 46 NNW 9 15 30.39 1029 10 16 0.00 0.00
8:52 pm 20:52 Clear 35 1.7 18 -7.8 50 50 N 10 17 30.39 1029 10 16 0.00 0.00
9:52 pm 21:52 Partly Cloudy 35 1.7 18 -7.8 50 50 NNW 7 11 30.40 1029 10 16 0.00 0.00
10:52 pm 22:52 Partly Cloudy 35 1.7 17 -8.3 48 48 NW 7 11 30.41 1030 10 16 0.00 0.00
11:52 pm 23:52 Mostly Clear 34 1.1 18 -7.8 52 52 N 5 7 30.41 1030 10 16 0.00 0.00

Powered by AerisWeather